This is the latest recevied weather packets stored in our database for station/object DO0SOB-11. If no packets are shown the sender has not sent any weather packets the latest 10 day(s).
| Time | Temp. | Humidity | Pressure | Rain* | Wind** | Luminosity | Snow |
|---|---|---|---|---|---|---|---|
| 1787679208 | 19.44° C | 100% | 977.3 hPa | - | - | - | - |
| 1787678188 | 19.44° C | 100% | 977.2 hPa | - | - | - | - |
| 1787677167 | 20° C | 100% | 977.1 hPa | - | - | - | - |
| 1787676147 | 20° C | 100% | 977.1 hPa | - | - | - | - |
| 1787675127 | 20.56° C | 100% | 977.2 hPa | - | - | - | - |
| 1787674107 | 20.56° C | 100% | 977 hPa | - | - | - | - |
| 1787673087 | 20.56° C | 100% | 977.1 hPa | - | - | - | - |
| 1787672067 | 20.56° C | 100% | 977.1 hPa | - | - | - | - |
| 1787671047 | 20.56° C | 100% | 977 hPa | - | - | - | - |
| 1787670027 | 20.56° C | 100% | 977 hPa | - | - | - | - |
| 1787669007 | 20.56° C | 100% | 976.9 hPa | - | - | - | - |
| 1787667987 | 21.11° C | 100% | 976.9 hPa | - | - | - | - |
| 1787666967 | 21.67° C | 100% | 976.7 hPa | - | - | - | - |
| 1787665946 | 21.67° C | 100% | 976.7 hPa | - | - | - | - |
| 1787664926 | 21.67° C | 100% | 976.7 hPa | - | - | - | - |
| 1787663906 | 21.67° C | 100% | 976.5 hPa | - | - | - | - |
| 1787662886 | 21.11° C | 100% | 976.6 hPa | - | - | - | - |
| 1787661866 | 21.11° C | 100% | 976.6 hPa | - | - | - | - |
| 1787660846 | 20.56° C | 100% | 976.6 hPa | - | - | - | - |
| 1787659826 | 21.11° C | 100% | 976.8 hPa | - | - | - | - |
| 1787658806 | 20.56° C | 100% | 976.7 hPa | - | - | - | - |
| 1787657786 | 21.67° C | 100% | 976.7 hPa | - | - | - | - |
| 1787656766 | 21.67° C | 100% | 976.8 hPa | - | - | - | - |
| 1787655746 | 21.11° C | 100% | 976.8 hPa | - | - | - | - |
| 1787654726 | 20.56° C | 100% | 976.7 hPa | - | - | - | - |
* Rain since midnight (hover to see other rain measurements)
** Current wind speed in m/s (hover to see current wind gust speed)